Regional Weather Roundup
Issued by NWS Little Rock, AR

Home | Current Version | Previous Version | Graphics & Text | Print | Product List | Glossary On
Versions: 1 2 3 4 5 6 7 8 9 10 11 12 13 14 15 16 17 18 19 20 21 22 23 24 25 26 27 28 29 30 31 32 33 34 35 36 37 38 39 40 41 42 43 44 45 46 47 48 49 50
000
ASUS44 KLZK 260905
RWRLZK

WEATHER ROUNDUP FOR ARKANSAS
NATIONAL WEATHER SERVICE LITTLE ROCK AR
400 AM CDT TUE MAY 26 2015

NOTE: "FAIR" INDICATES FEW OR NO CLOUDS BELOW 12,000 FEET WITH NO
SIGNIFICANT WEATHER AND/OR OBSTRUCTIONS TO VISIBILITY.

ARZ001-003-010-029-261000-
NORTHWEST ARKANSAS

CITY           SKY/WX    TMP DP  RH WIND       PRES   REMARKS
FAYETTEVILLE   CLOUDY    60  58  92 S10       29.90R
FORT SMITH     CLOUDY    63  58  83 SW5       29.89R
HARRISON       CLOUDY    59  59 100 CALM      29.88R
BENTONVILLE    CLOUDY   N/A N/A N/A SW12      29.88R
ROGERS         CLOUDY    61  58  90 SW10      29.89R
SILOAM SPGS    CLOUDY    61  54  77 SW13      29.89R
HIGHFILL       CLOUDY    61  58  90 SW10      29.87R
$$

ARZ004-005-016-261000-
NORTH CENTRAL ARKANSAS

CITY           SKY/WX    TMP DP  RH WIND       PRES   REMARKS
BATESVILLE     CLOUDY    64  63  94 W15       29.89R
FLIPPIN        CLOUDY    63  61  94 CALM      29.85R
MTN HOME       CLOUDY    61  60  97 S6        29.86R
$$

ARZ040-041-261000-
WEST CENTRAL ARKANSAS

CITY           SKY/WX    TMP DP  RH WIND       PRES   REMARKS
MENA           CLOUDY    63  61  94 S8        29.92R
MOUNT IDA      CLOUDY    62  58  86 W3        29.92R
$$

ARZ009-017-025-026-028-261000-
NORTHEAST ARKANSAS

CITY           SKY/WX    TMP DP  RH WIND       PRES   REMARKS
CORNING        FAIR      66  66 100 E13       29.86F
JONESBORO      CLOUDY    66  65  96 E8        29.86F
NEWPORT        CLOUDY    65  65 100 SE9       29.86F
WALNUT RIDGE   CLOUDY    66  63  88 E13       29.82F
BLYTHEVILLE    CLOUDY    73  69  87 S12       29.93F
$$

ARZ022-023-033-042-044-261000-
CENTRAL ARKANSAS

CITY           SKY/WX    TMP DP  RH WIND       PRES   REMARKS
LITTLE ROCK    CLOUDY    63  59  87 VRB7      29.92F
N LITTLE ROCK    N/A     62  62  99 S9        29.92R
JACKSONVILLE   CLOUDY    64  62  95 S5        29.92R
SEARCY         LGT RAIN  64  62  93 SW7       29.95R
HOT SPRINGS    CLOUDY    63  60  90 SW6       29.94R
RUSSELLVILLE   CLOUDY    63  61  93 CALM      29.91R
CLINTON        MOCLDY    63  63 100 CALM      29.93R
$$

ARZ036-261000-
EAST ARKANSAS

CITY           SKY/WX    TMP DP  RH WIND       PRES   REMARKS
WEST MEMPHIS   LGT RAIN  67  67 100 SE8       29.89F
$$

ARZ050-053-066-070-073-261000-
SOUTHWEST ARKANSAS

CITY           SKY/WX    TMP DP  RH WIND       PRES   REMARKS
ARKADELPHIA    PTSUNNY   63  63 100 SW5       29.96R
CAMDEN         CLOUDY    63  59  88 CALM      29.95R
TEXARKANA      CLOUDY    62  61  96 S5        29.95R
EL DORADO      CLOUDY    62  60  93 E6        29.92R
$$

ARZ056-057-069-261000-
SOUTHEAST ARKANSAS

CITY           SKY/WX    TMP DP  RH WIND       PRES   REMARKS
PINE BLUFF     LGT RAIN  62  61  96 S9        29.92F
STUTTGART      CLOUDY    64  61  88 SE16G24   29.88F
MONTICELLO     LGT RAIN  62  62 100 S12       29.97R

$$




USA.gov is the U.S. government's official web portal to all federal, state and local government web resources and services.